Change the Weather History Date:

Monday, November 4, 2013

  Actual Average Record
Temperature  
Mean Temperature 31 °F 41 °F  
Max Temperature 41 °F 52 °F 71 °F (1980)
Min Temperature 21 °F 30 °F 7 °F (1973)
Degree Days  
Heating Degree Days 34 24  
Month to date heating degree days 105 95  
Since 1 July heating degree days 854 903  
Cooling Degree Days 0 0  
Month to date cooling degree days 0 0  
Year to date cooling degree days 642 365  
Moisture  
Dew Point 20 °F    
Average Humidity 64    
Maximum Humidity 84    
Minimum Humidity 44    
Precipitation  
Precipitation T in 0.03 in 0.19 in (1972)
Month to date precipitation 0.01 0.11  
Year to date precipitation 4.34 8.18  
Sea Level Pressure  
Sea Level Pressure 30.08 in    
Wind  
Wind Speed 10 mph (WSW)    
Max Wind Speed 21 mph    
Max Gust Speed 26 mph    
Visibility 10 miles    
Events      
T = Trace of Precipitation, MM = Missing Value Source: NWS Daily Summary

Daily Weather History Graph

Daily Weather History Graph

Search for Another Location

Airport or City:

Trip Planner

Search our weather history database for the weather conditions in past years. The results will help you decide how hot, cold, wet, or windy it might be!

Date:

Astronomy

Nov. 04, 2013 Rise Set
Actual Time 7:12 AM MST 5:23 PM MST
Civil Twilight 6:43 AM MST 5:53 PM MST
Nautical Twilight 6:09 AM MST 6:26 PM MST
Astronomical Twilight 5:36 AM MST 6:59 PM MST
Moon 8:29 AM MST (11/4) 6:30 PM MST (11/4)
Length of Visible Light 11h 10m
Length of Day
10h 10m
New Moon, 2% of the Moon is Illuminated
Nov 4
New Moon
Nov 9
First Quarter
Nov 17
Full
Nov 25
Last Quarter
Dec 2
New

Hourly Weather History & Observations

Time (MST) Temp. Windchill Dew Point Humidity Pressure Visibility Wind Dir Wind Speed Gust Speed Precip Events Conditions
12:53 AM 24.1 °F 14.4 °F 19.0 °F 81% 30.04 in 10.0 mi SSW 9.2 mph - N/A   Clear
1:53 AM 25.0 °F 13.1 °F 19.0 °F 78% 30.04 in 10.0 mi SSW 13.8 mph - N/A   Clear
2:53 AM 23.0 °F 13.1 °F 18.0 °F 81% 30.04 in 10.0 mi SSW 9.2 mph - N/A   Clear
3:53 AM 24.1 °F 13.7 °F 18.0 °F 77% 30.03 in 10.0 mi SSW 10.4 mph - N/A   Clear
4:53 AM 21.0 °F 13.4 °F 17.1 °F 85% 30.05 in 10.0 mi SW 5.8 mph - N/A   Clear
5:53 AM 21.9 °F 12.5 °F 17.1 °F 82% 30.06 in 10.0 mi SW 8.1 mph - N/A   Scattered Clouds
6:53 AM 25.0 °F 19.3 °F 19.0 °F 78% 30.07 in 10.0 mi SW 4.6 mph - N/A   Overcast
7:53 AM 27.0 °F 23.0 °F 19.0 °F 72% 30.09 in 10.0 mi SSW 3.5 mph - N/A   Overcast
8:53 AM 30.0 °F 25.2 °F 21.9 °F 72% 30.10 in 10.0 mi SSW 4.6 mph - N/A   Mostly Cloudy
9:53 AM 35.1 °F 26.9 °F 19.0 °F 52% 30.09 in 10.0 mi WSW 11.5 mph - N/A   Clear
10:53 AM 39.0 °F 31.4 °F 19.0 °F 45% 30.08 in 10.0 mi West 12.7 mph - N/A   Partly Cloudy
11:53 AM 39.0 °F 31.4 °F 19.0 °F 45% 30.07 in 10.0 mi West 12.7 mph 23.0 mph N/A   Overcast
12:53 PM 39.0 °F 31.0 °F 21.0 °F 49% 30.06 in 10.0 mi West 13.8 mph 23.0 mph N/A   Overcast
1:53 PM 39.0 °F 31.0 °F 21.0 °F 49% 30.05 in 10.0 mi WSW 13.8 mph 19.6 mph N/A   Overcast
2:53 PM 37.0 °F 28.5 °F 19.9 °F 50% 30.06 in 10.0 mi West 13.8 mph 21.9 mph 0.00 in   Scattered Clouds
3:53 PM 37.9 °F 30.0 °F 19.0 °F 47% 30.06 in 10.0 mi West 12.7 mph 23.0 mph N/A   Partly Cloudy
4:53 PM 36.0 °F 26.7 °F 17.1 °F 46% 30.07 in 10.0 mi West 15.0 mph 24.2 mph N/A   Clear
5:53 PM 33.1 °F 25.5 °F 19.9 °F 59% 30.09 in 10.0 mi West 9.2 mph - N/A   Clear
6:53 PM 28.9 °F 21.1 °F 19.9 °F 69% 30.12 in 10.0 mi SW 8.1 mph - N/A   Clear
7:53 PM 26.1 °F 16.8 °F 19.0 °F 75% 30.13 in 10.0 mi SW 9.2 mph - N/A   Clear
8:53 PM 24.1 °F 15.2 °F 18.0 °F 77% 30.14 in 10.0 mi SW 8.1 mph - N/A   Clear
9:53 PM 28.0 °F 18.6 °F 23.0 °F 81% 30.13 in 10.0 mi WSW 10.4 mph - N/A   Clear
10:53 PM 28.0 °F 18.1 °F 23.0 °F 81% 30.14 in 10.0 mi WSW 11.5 mph - N/A   Clear
11:53 PM 27.0 °F 17.3 °F 24.1 °F 89% 30.15 in 10.0 mi WSW 10.4 mph - N/A   Clear